Location: Unspecified
(0.0000°N, 0.0000°E)
Time: 09:37:15
(UTC+00:00)

STARLINK-1011 - Pass Details

Date: 11 December 2019
Orbit: 549 x 550 km, 53.0° (Epoch: 12 August)

Event Time Altitude Azimuth Distance (km) Brightness Sun altitude
Rises 19:38:37 0° 245° (WSW) 2,721 8.6 -24.1°
Reaches altitude 10° 19:41:40 10° 269° (W) 1,823 7.1 -24.8°
Maximum altitude 19:44:04 15° 305° (NW) 1,522 6.2 -25.3°
Enters shadow 19:45:22 13° 326° (NW) 1,612 6.1 -25.6°
